Probability
0 0 0 0 0 0 0 0 0 0 0 0 0 0 0 0 0 0 0 0 0 0 0 0 0 0 0 0 0 0 0 0 0 0 0 0 0 0 0 0 0 0 0
0 0 0 0 0 0 0 0 0 0 0 0 0 0 0 0 0 0 0 0 0 0 0 0 0 0 0 0 0 0 0 0 0 0 0 0 0 0 0 0 0 0 0
0 0 0 0 0 0 0 0 0 0 0 0 0 0 0 0 0 0 0 0 0 0 0 0 0 0 0 0 0 0 0 0 0 0 0 0 0 0 0 0 0 0 0
0 0 0 0 0 0 0 0 0 0 0 0 0 0 0 0 0 0 0 0 0 0 0 0 0 0 0 0 0 0 0 0 0 0 0 0 0 0 0 0 0 0 0
0 0 0 0 0 0 0 0 0 0 0 0 0 0 0 0 0 0 0 0 0 0 0 0 0 0 0 0 0 0 0 0 0 0 0 0 0 0 0 0 0 0 0
0 0 0 0 0 0 0 0 0 0 0 0 0 0 0 0 0 0 0 0 0 0 0 0 0 0 0 0 0 0 0 0 0 0 0 0 0 0 0 0 0 0 0
0 0 0 0 0 0 0 0 0 0 0 0 0 0 0 0 0 0 0 0 0 0 0 0 0 0 0 0 0 0 0 0 0 0 0 0 0 0 0 0 0 0 0
0 0 0 0 0 0 0 0 0 0 0 0 0 0 0 0 0 0 0 0 0 0 0 0 0 0 0 0 0 0 0 0 0 0 0 0 0 0 0 0 0 0 0
0 0 0 0 0 0 0 0 0 0 0 0 0 0 0 0 0 0 0 0 0 0 0 0 0 0 0 0 0 0 0 0 0 0 0 0 0 0 0 0 0 0 0
0 0 0 0 0 0 0 0 0 0 0 0 0 0 0 0 0 0 0 0 0 0 0 0 0 0 0 0 0 0 0 0 0 0 0 0 0 0 0 0 0 0 0
0 0 0 0 0 0 0 0 0 0 0 0 0 0 0 0 0 0 0 0 0 0 0 0 0 0 0 0 0 0 0 0 0 0 0 0 0 0 0 0 0 0 0
0 0 0 0 0 0 0 0 0 0 0 0 0 0 0 0 0 0 0 0 0 0 0 0 0 0 0 0 0 0 0 0 0 0 0 0 0 0 0 0 0 0 0
0 0 0 0 0 0 0 0 0 0 0 0 0 0 0 0 0 0 0 0 0 0 0 0 0 0 0 0 0 0 0 0 0 0 0 0 0 0 0 0 0 0 0
0 0 0 0 0 0 0 0 0 0 0 0 0 0 0 0 0 0 0 0 0 0 0 0 0 0 0 0 0 0 0 0 0 0 0 0 0 0 0 0 0 0 0
0 0 0 0 0 0 0 0 0 0 0 0 0 0 0 0 0 0 0 0 0 0 0 0 0 0 0 0 0 0 0 0 0 0 0 0 0 0 0 0 0 0 0
0 0 0 0 0 0 0 0 0 0 0 0 0 0 0 0 0 0 0 0 0 0 0 0 0 0 0 0 0 0 0 0 0 0 0 0 0 0 0 0 0 0 0
0 0 0 0 0 0 0 0 0 0 0 0 0 0 0 0 0 0 0 0 0 0 0 0 0 0 0 0 0 0 0 0 0 0 0 0 0 0 0 0 0 0 0
0 0 0 0 0 0 0 0 0 0 0 0 0 0 0 0 0 0 0 0 0 0 0 0 0 0 0 0 0 0 0 0 0 0 0 0 0 0 0 0 0 0 0
0 0 0 0 0 0 0 0 0 0 0 0 0 0 0 0 0 0 0 0 0 0 0 0 0 0 0 0 0 0 0 0 0 0 0 0 0 0 0 0 0 0 0
0 0 0 0 0 0 0 0 0 0 0 0 0 0 0 0 0 0 0 0 0 0 0 0 0 0 0 0 0 0 0 0 0 0 0 0 0 0 0 0 0 0 0
0 0 0 0 0 0 0 0 0 0 0 0 0 0 0 0 0 0 0 0 0 0 0 0 0 0 0 0 0 0 0 0 0 0 0 0 0 0 0 0 0 0 0
0 0 0 0 0 0 0 0 0 0 0 0 0 0 0 0 0 0 0 0 0 0 0 0 0 0 0 0 0 0 0 0 0 0 0 0 0 0 0 0 0 0 0
0 0 0 0 0 0 0 0 0 0 0 0 0 0 0 0 0 0 0 0 0 0 0 0 0 0 0 0 0 0 0 0 0 0 0 0 0 0 0 0 0 0 0
0 0 0 0 0 0 0 0 0 0 0 0 0 0 0 0 0 0 0 0 0 0 0 0 0 0 0 0 0 0 0 0 0 0 0 0 0 0 0 0 0 0 0
0 0 0 0 0 0 0 0 0 0 0 0 0 0 0 0 0 0 0 0 0 0 0 0 0 0 0 0 0 0 0 0 0 0 0 0 0 0 0 0 0 0 0
0 0 0 0 0 0 0 0 0 0 0 0 0 0 0 0 0 0 0 0 0 0 0 0 0 0 0 0 0 0 0 0 0 0 0 0 0 0 0 0 0 0 0
Wind_Speed
7 7 8 7 7 7 6 5 5 5 5 4 4 4 4 4 4 4 4 4 5 5 5 6 7 7 6 5 5 5 6 7 15 15 7 5 6 6 6 6 7 7 8
7 8 8 7 7 7 7 6 6 5 5 5 4 4 4 5 4 4 5 5 5 6 7 7 8 7 8 7 6 7 7 7 10 17 12 7 7 7 7 7 6 6 6
8 8 8 8 7 7 7 6 6 5 5 5 5 5 4 4 4 4 4 5 5 6 7 8 8 8 8 7 8 8 8 7 8 11 14 9 7 5 7 7 6 6 6
8 8 8 7 7 6 6 6 6 5 5 5 5 5 4 4 4 4 5 6 6 7 7 7 8 8 8 9 8 8 8 8 8 9 11 10 7 6 5 6 7 5 6
8 8 8 7 6 6 6 5 5 5 5 4 4 5 5 4 4 5 5 6 7 8 8 7 8 9 10 9 8 8 8 8 8 8 9 9 8 6 6 5 8 7 6
9 8 7 6 5 5 5 4 4 4 4 4 4 4 5 4 8 10 8 6 6 7 8 7 7 7 9 12 13 13 12 10 10 8 9 9 9 7 6 6 7 8 6
8 7 5 5 5 4 4 4 4 4 4 4 4 4 4 6 10 11 10 7 7 7 7 7 7 6 7 7 10 13 11 13 13 10 10 10 9 8 8 8 7 7 7
7 6 5 5 4 4 4 4 3 3 3 3 4 4 5 7 11 12 12 7 6 6 6 7 8 8 7 9 8 8 7 7 8 6 7 8 7 6 6 7 7 6 5
6 5 4 4 3 3 3 3 3 3 3 4 4 5 6 8 11 13 12 5 6 7 6 6 7 7 12 14 9 9 9 7 8 9 9 8 10 10 8 5 5 4 4
5 4 3 3 3 2 2 2 2 3 4 5 5 5 6 7 11 13 12 4 6 7 6 5 7 10 13 14 8 8 9 8 6 6 5 6 5 6 8 5 4 4 3
4 4 3 3 2 1 1 2 3 4 4 5 6 6 6 6 10 12 12 4 5 7 7 6 5 12 14 14 11 7 9 8 5 5 4 3 3 3 4 4 4 3 3
4 3 2 1 1 1 2 2 3 3 5 5 6 6 4 5 6 9 12 11 10 7 7 6 7 13 13 12 9 8 10 7 3 3 3 3 3 3 4 4 4 4 4
4 2 1 1 1 1 1 3 3 3 3 4 5 6 6 4 6 11 12 13 13 8 7 11 12 12 10 7 7 9 6 3 3 2 2 3 3 3 3 2 3 4 5
3 2 1 1 1 1 1 2 2 3 4 4 5 6 7 6 4 4 4 5 8 8 7 6 9 9 6 5 4 4 3 2 2 2 2 2 2 2 3 3 2 2 3
3 2 1 1 2 2 2 3 4 4 5 6 5 6 8 9 8 13 11 7 6 7 7 4 3 2 2 2 2 2 2 3 3 2 2 2 2 3 3 3 3 3 3
3 2 1 1 2 2 3 4 7 8 11 13 14 12 9 13 18 18 17 16 16 14 7 4 3 3 2 2 2 1 2 2 2 2 2 2 2 2 3 3 3 3 3
3 1 1 1 2 2 3 4 6 7 8 11 12 14 15 17 17 17 16 14 13 10 5 3 3 3 2 1 1 1 1 1 2 2 2 2 2 2 2 2 3 3 3
2 1 1 1 2 2 3 4 4 6 8 6 7 12 14 15 16 16 15 11 6 4 3 3 2 2 1 1 0 0 0 1 1 2 2 2 2 2 2 2 2 2 2
2 1 1 1 2 3 3 4 4 6 6 7 6 7 9 12 13 12 10 4 4 3 3 2 2 1 1 0 0 0 1 1 1 1 1 2 2 2 2 2 2 2 2
2 3 2 2 2 3 3 4 4 5 6 6 6 6 5 5 4 5 4 3 3 3 2 2 1 1 1 1 1 1 1 1 1 1 1 1 1 1 1 1 1 1 1
2 2 2 2 3 3 3 4 4 5 6 6 6 7 11 6 5 5 4 3 3 3 2 2 1 1 1 0 1 1 1 1 0 0 0 0 1 1 1 1 1 1 1
2 2 2 2 3 3 3 4 4 5 6 7 6 6 10 5 4 4 4 3 2 2 2 2 2 1 1 1 1 1 2 2 1 1 1 0 0 0 0 0 0 0 0
3 2 2 2 3 4 4 4 4 5 5 6 5 5 5 4 4 4 4 3 2 2 2 2 2 2 1 1 2 2 3 3 3 3 2 2 1 1 1 1 1 1 0
2 2 2 3 3 3 3 4 4 5 5 5 5 5 5 4 4 4 4 3 2 2 2 2 3 3 3 2 2 2 2 2 2 3 4 3 2 2 1 1 1 2 2
3 3 3 3 3 3 4 4 4 5 5 5 5 5 5 4 4 4 4 3 3 3 4 3 3 3 4 4 3 3 4 4 4 3 3 3 3 3 2 2 2 2 2
3 3 3 3 3 3 4 4 4 5 5 5 5 5 5 4 4 4 4 3 3 4 4 3 4 5 5 4 5 6 6 6 6 6 4 4 4 4 3 3 3 3 3
Wind_Direction
89 87 85 80 79 79 76 69 64 58 53 47 35 29 23 13 5 356 340 335 327 317 314 307 303 304 300 298 292 284 277 275 283 292 296 299 297 292 290 278 274 274 277
90 87 84 80 77 74 68 59 55 53 48 43 35 31 22 12 5 356 345 343 334 324 320 315 311 312 306 305 301 295 290 285 286 293 299 305 300 299 297 295 290 283 278
88 86 81 75 73 70 64 56 50 45 41 34 32 28 16 5 359 356 352 343 331 322 318 314 312 313 307 307 305 300 298 296 290 290 295 299 298 303 302 298 293 289 290
90 87 81 74 71 67 61 53 44 39 37 27 23 17 5 356 357 357 351 338 326 318 314 311 311 311 308 310 304 299 299 296 291 288 291 297 300 304 304 305 305 299 294
93 87 80 73 68 64 57 48 42 38 31 19 16 4 355 350 354 350 339 325 318 313 309 307 305 304 300 301 300 302 302 297 296 293 293 298 301 313 312 308 303 305 296
91 86 82 79 73 65 56 48 43 34 20 14 8 355 345 339 336 335 330 318 311 307 306 305 302 299 302 305 303 302 300 298 299 296 296 298 304 310 310 310 308 309 306
98 94 88 85 76 61 49 44 35 20 8 359 350 343 328 321 329 328 327 316 304 302 302 304 305 303 302 299 301 304 301 297 295 293 294 299 305 309 309 305 303 301 296
102 95 86 81 73 56 46 37 19 6 354 337 328 323 314 312 323 324 323 315 302 299 297 298 301 306 307 309 305 303 299 296 299 293 284 292 299 307 302 298 298 297 291
101 95 86 80 71 51 35 17 359 344 330 318 308 308 305 307 315 317 320 308 302 301 298 296 298 300 308 316 313 306 304 301 311 308 306 312 319 327 329 317 313 310 306
104 98 87 76 66 41 10 347 333 321 308 307 303 298 291 291 303 310 313 300 303 305 303 297 296 306 313 317 309 302 302 307 311 314 319 326 329 338 347 338 320 314 312
104 96 82 64 41 358 332 317 309 306 305 301 298 295 286 282 296 306 308 300 294 301 302 303 301 311 313 315 316 305 303 310 309 311 318 326 335 347 353 359 357 346 338
102 95 82 54 357 336 316 304 301 301 304 303 304 303 292 287 293 302 306 302 301 293 295 297 298 307 313 319 321 318 322 325 318 320 326 333 343 355 2 10 20 30 37
106 93 75 25 304 285 294 306 308 303 299 303 305 304 305 300 300 305 303 303 303 298 287 289 297 304 312 317 325 331 335 330 322 328 332 341 353 360 4 14 23 35 46
102 85 52 13 340 330 304 288 289 294 296 297 300 300 301 299 297 296 289 296 298 296 292 289 294 300 306 316 323 334 338 335 332 334 342 346 354 9 15 11 11 7 32
101 86 40 3 340 324 304 278 284 258 259 283 284 284 294 298 297 303 304 298 293 286 293 289 289 293 299 313 328 342 349 358 4 3 5 5 8 17 15 9 14 23 37
106 83 42 1 340 324 315 307 299 295 294 291 290 291 288 290 301 303 301 299 300 297 294 279 273 269 271 285 305 325 353 1 359 8 18 16 16 19 19 19 26 38 44
115 103 1 339 326 320 319 317 315 314 305 304 304 306 302 303 305 305 304 305 306 301 282 273 266 260 258 257 264 291 330 357 3 18 29 23 21 25 31 30 31 39 41
136 192 230 267 289 297 297 295 296 304 311 307 306 306 308 310 312 311 309 309 304 302 275 274 273 268 261 235 225 265 17 27 25 28 33 30 24 31 40 38 37 38 37
163 198 214 255 276 280 281 284 286 288 291 298 304 306 310 311 313 316 319 302 286 283 282 279 274 267 261 231 174 141 115 89 46 43 40 33 28 42 45 39 40 37 42
188 217 218 240 265 273 277 282 286 289 292 294 298 304 309 309 303 307 306 296 289 286 286 283 280 263 227 201 171 145 121 101 74 61 45 33 29 50 63 52 50 49 36
183 213 225 234 247 257 266 273 280 284 287 289 290 296 305 302 292 289 288 284 283 285 288 283 271 260 250 209 169 154 148 151 152 143 110 33 41 49 45 59 65 65 65
189 207 220 232 247 257 265 269 274 278 283 287 292 300 305 300 286 283 280 278 276 279 284 278 267 246 220 212 208 194 186 189 195 191 194 197 157 110 82 82 64 71 84
194 212 232 242 249 262 269 268 270 273 278 283 288 291 293 289 286 283 281 282 283 280 279 268 256 246 233 225 220 209 204 207 202 193 187 189 193 196 188 189 195 201 212
193 214 235 251 257 261 266 271 272 275 278 282 285 285 285 284 283 282 281 276 276 275 265 252 244 239 235 232 231 227 220 214 194 191 189 188 195 201 199 201 212 213 219
199 214 230 242 250 258 266 271 274 275 277 280 282 283 284 283 282 280 275 269 267 268 267 261 255 246 239 237 234 232 233 229 209 190 184 184 194 200 203 210 215 215 221
200 215 228 236 243 251 259 267 272 275 276 277 277 278 279 277 277 276 274 269 267 266 263 257 253 250 246 242 241 239 233 229 219 205 188 186 194 204 201 209 215 216 219